Regional Weather Roundup
Issued by NWS

Home | Current Version | Previous Version | Text Only | Print | Product List | Glossary On
Versions: 1 2 3 4 5 6 7 8 9 10 11 12 13 14 15 16 17 18 19 20 21 22 23 24 25 26 27 28 29 30 31 32 33 34 35 36 37 38 39 40 41 42 43 44 45 46 47 48 49 50
000
ASUS43 KMPX 301810
RWRMN
WEATHER ROUNDUP FOR MINNESOTA
NATIONAL WEATHER SERVICE TWIN CITIES/CHANHASSEN MN
100 PM CDT SAT JUL 30 2016


NOTE: "FAIR" INDICATES FEW OR NO CLOUDS BELOW 12,000 FEET WITH NO
SIGNIFICANT WEATHER AND/OR OBSTRUCTIONS TO VISIBILITY. N/A MEANS
CURRENT SKY AND/OR WEATHER CONDITIONS ARE NOT AVAILABLE.

MNZ060>063-068>070-301900-
   Twin Cities Metro

CITY           SKY/WX    TMP DP  RH WIND       PRES   REMARKS
TWIN CITIES    MOSUNNY   78  63  59 SE5       30.03F
6HR MIN TEMP:  67; 6HR MAX TEMP:  79;

ST PAUL        MOSUNNY   79  64  60 S7        30.03F
CRYSTAL        MOSUNNY   78  60  53 S7        30.02F
BLAINE         PTSUNNY   79  64  61 SE7       30.04S
LAKEVILLE      MOSUNNY   75  64  69 NE5       30.03F
EDEN PRAIRIE   PTSUNNY   79  63  57 SE7       30.02F
6HR MIN TEMP:  65; 6HR MAX TEMP:  80;

LAKEVILLE      MOSUNNY   75  64  69 NE5       30.03F
SOUTH ST PAUL  PTSUNNY   77  61  58 S8        30.03S
LAKE ELMO      FAIR      77  64  65 SE5       30.05S
$$
MNZ001>005-007-008-013>017-022>024-027-028-301900-
   Northwest Minnesota

CITY           SKY/WX    TMP DP  RH WIND       PRES   REMARKS
BEMIDJI        CLOUDY    68  62  79 SW8       30.05S
HALLOCK        MOSUNNY   79  64  61 S16       29.92S
ROSEAU         MOSUNNY   75  66  73 S8        29.97S
WARROAD        PTSUNNY   79  66  65 S8        29.97S
THIEF RVR FALL CLOUDY    75  62  64 S15       29.99F
CROOKSTON      MOSUNNY   79  63  57 S13G20    29.97F
FOSSTON        MOSUNNY   72  64  78 SE7       30.02S
DETROIT LAKES  MOSUNNY   75  59  57 S9        30.03F
MOORHEAD       MOSUNNY   79  61  53 S10       29.98F
PARK RAPIDS    CLOUDY    78  56  46 S9        30.03F
MAHNOMEN       CLOUDY    73  62  67 S9        30.01S
$$
MNZ006-009>011-018-025>026-301900-
   North Central Minnesota

CITY           SKY/WX    TMP DP  RH WIND       PRES   REMARKS
BAUDETTE       LGT RAIN  73  62  68 SW13      29.99S
FLAG ISLAND    SUNNY     75  64  69 S9        29.96S
INTL FALLS     MOSUNNY   77  59  53 SE8       30.01F
6HR MIN TEMP:  56; 6HR MAX TEMP:  78;

WASKISH        CLOUDY    72  63  73 SW9       30.03R
BIG FORK       MOSUNNY   79  59  50 S7        30.04S
LONGVILLE      MOSUNNY   77  55  47 SE6       30.05S
GRAND RAPIDS   MOSUNNY   73  55  53 S3        30.07S
CRANE LAKE     SUNNY     73  52  46 SE3       30.05F
ORR            SUNNY     77  48  36 CALM      30.02F
COOK           SUNNY     75  55  50 E3        30.05F
WALKER         CLOUDY    73  58  60 S3        30.04S
$$
MNZ012-019>021-037-301900-
   Northeast Minnesota

CITY           SKY/WX    TMP DP  RH WIND       PRES   REMARKS
DULUTH         MOSUNNY   73  60  63 E6        30.06F
6HR MIN TEMP:  57; 6HR MAX TEMP:  73;

ELY            MOSUNNY   73  54  49 S7        30.06S
HIBBING        SUNNY     74  51  44 CALM      30.05F
EVELETH        SUNNY     74  50  43 CALM      30.07S
DULUTH HARBOR  SUNNY     70  63  78 E8        30.07S
TWO HARBORS    SUNNY     75  61  60 E8        30.05F
SILVER BAY     SUNNY     73  57  56 NE6       30.06S
GRAND MARAIS     N/A     66  58  75 E7        30.08S
G MARAIS ARPRT CLOUDY    70  48  46 SE6       30.12S
$$
MNZ029>031-032-039>041-046>048-054>057-064-301900-
   West Central Minnesota

CITY           SKY/WX    TMP DP  RH WIND       PRES   REMARKS
FERGUS FALLS   PTSUNNY   75  59  57 S12       30.02S
WHEATON        SUNNY     79  63  57 S9        30.01F
MORRIS         SUNNY     79  57  47 S9        30.01F
ALEXANDRIA     SUNNY     76  56  49 VRB7      30.05F
ELBOW LAKE     FAIR      75  61  61 SE8       30.02F
WADENA         SUNNY     75  57  53 S10       30.03F
GLENWOOD       SUNNY     75  57  53 SE6       30.04F
APPLETON       SUNNY     77  57  50 SE6       30.01S
BENSON         SUNNY     77  54  44 SW5       30.02F
ORTONVILLE     SUNNY     77  59  53 SE8       30.00F
MADISON        SUNNY     77  55  47 SE8       30.01F
WILLMAR        FAIR      75  57  53 SE5       30.04F
$$
MNZ033>034-036-042>043-049>051-058-059-301900-
   Central Minnesota

CITY           SKY/WX    TMP DP  RH WIND       PRES   REMARKS
ST CLOUD       PTSUNNY   75  62  64 S5        30.03S
6HR MIN TEMP:  56; 6HR MAX TEMP:  77;

SAUK CENTRE    FAIR      75  56  51 SE5       30.04F
PAYNESVILLE    SUNNY     75  54  47 SE8       30.04F
AITKIN         SUNNY     81  45  28 SE5       30.04S
PINE RIVER     SUNNY     75  55  50 SE8       30.07F
BRAINERD       SUNNY     77  56  48 SE9       30.04F
STAPLES        SUNNY     75  52  43 SE6       30.04F
LONG PRAIRIE   FAIR      73  57  56 SE3       30.05S
LITTLE FALLS   MOSUNNY   75  55  50 SE6       30.04F
LITCHFIELD     MOSUNNY   79  57  47 CALM      30.04S
BUFFALO        PTSUNNY   76  60  57 S3        30.04S
MAPLE LAKE     SUNNY     78  63  61 E3        30.04F
HUTCHINSON     MOSUNNY   76  60  56 CALM      30.04F
$$
MNZ037-044-045-052-053-301900-
   East Central Minnesota

CITY           SKY/WX    TMP DP  RH WIND       PRES   REMARKS
PRINCETON      MOSUNNY   81  64  57 E5        30.03F
MORA           MOSUNNY   75  61  60 S5        30.06S
CAMBRIDGE      MOSUNNY   79  63  57 E6        30.02F
RUSH CITY      PTSUNNY   74  62  65 CALM      30.04F
MOOSE LAKE     PTSUNNY   75  61  60 CALM      30.03F
HINCKLEY       MOCLDY    75  63  64 E5        30.05S
CLOQUET        MOSUNNY   73  57  56 S6        30.06S
MCGREGOR       SUNNY     77  55  47 CALM      30.06R
$$
MNZ071>073-080-081-089-090-097-098-301900-
   Southwest Minnesota

CITY           SKY/WX    TMP DP  RH WIND       PRES   REMARKS
MONTEVIDEO     MOSUNNY   79  59  50 S5        30.04S
GRANITE FALLS  SUNNY     77  55  46 E5        30.04S
CANBY          SUNNY     78  56  45 SE6       30.02F
MARSHALL       SUNNY     76  57  51 VRB5      30.03S
REDWOOD FALLS  MOSUNNY   77  54  44 CALM      30.02F
OLIVIA         SUNNY     73  52  46 E6        30.03S
PIPESTONE      SUNNY     75  57  53 S3        30.04S
WINDOM         SUNNY     77  54  44 S6        30.04S
WORTHINGTON    SUNNY     76  54  46 VRB7      30.04F
JACKSON        SUNNY     75  52  43 S3        30.05F
TRACY          SUNNY     76  56  50 E6        30.03F
SLAYTON        SUNNY     74  51  43 CALM      30.05F
$$
MNZ065>067-074>077-082>085-091>093-301900-
   South Central Minnesota

CITY           SKY/WX    TMP DP  RH WIND       PRES   REMARKS
MANKATO        SUNNY     75  57  53 SE7       30.03F
NEW ULM        SUNNY     75  52  43 S5        30.03S
ST JAMES       SUNNY     72  52  49 SE3       30.04S
FAIRMONT       MOSUNNY   75  57  53 CALM      30.03S
GLENCOE        MOSUNNY   79  62  56 SE5       30.03S
FARIBAULT      PTSUNNY   73  66  78 CALM      30.04S
OWATONNA       PTSUNNY   75  63  64 CALM      30.03F
WASECA         MOSUNNY   75  63  64 CALM      30.04F
ALBERT LEA     MOSUNNY   77  64  65 E3        30.03F
$$
MNZ078>079-086>088-094>096-301900-
   Southeast Minnesota

CITY           SKY/WX    TMP DP  RH WIND       PRES   REMARKS
ROCHESTER      MOSUNNY   76  64  66 E6        30.05F
6HR MIN TEMP:  65; 6HR MAX TEMP:  77;

RED WING       MOSUNNY   81  57  44 SE7       30.02F
STANTON        CLOUDY    77  63  61 SE3       30.02F
DODGE CENTER   MOSUNNY   77  64  65 CALM      30.05S
WINONA         CLOUDY    79  61  53 E7        30.04S
AUSTIN         MOSUNNY   72  66  83 CALM      30.05S
PRESTON        CLOUDY    75  63  64 NE5       30.05F
$$
ABBREVIATIONS USED IN REMARKS
   TC - TEMPERATURES IN CELSIUS
  WCI - WIND CHILL INDEX
   HX - HEAT INDEX
  VSB - VISIBILITY
$$




USA.gov is the U.S. government's official web portal to all federal, state and local government web resources and services.